Regional Weather Roundup
Issued by NWS

Home | Current Version | Previous Version | Graphics & Text | Print | Product List | Glossary On
Versions: 1 2 3 4 5 6 7 8 9 10 11 12 13 14 15 16 17 18 19 20 21 22 23 24 25 26 27 28 29 30 31 32 33 34 35 36 37 38 39 40 41 42 43 44 45 46 47 48 49 50
734
ASUS45 KSLC 062010
RWRUT

UTAH REGIONAL WEATHER ROUNDUP
NATIONAL WEATHER SERVICE SALT LAKE CITY UT
100 PM MST TUE DEC 06 2016

UTZ001>011-023>025-062100-

NORTHERN UTAH

CITY           SKY/WX    TMP DP  RH WIND       PRES   REMARKS
BRIGHAM CITY     N/A     28  10  45 N3        29.80F
HILL AFB       NOT AVBL
LOGAN          CLOUDY   N/A N/A N/A VRB5      29.81F
OGDEN          CLOUDY    27   6  41 N5        29.77F WCI  22
SALT LAKE CITY PTSUNNY   30  16  56 NW10      29.76F WCI  21
TOOELE VALLEY  CLOUDY    32  19  59 NW10      29.78F WCI  24
WENDOVER       PTSUNNY   27   7  43 S3        29.80F
HEBER CITY     MOSUNNY   23   5  46 W3        29.69F
WEST JORDAN    CLOUDY    30  21  68 NW14      29.75F WCI  20

$$

UTZ011>015-024>027-062100-

CENTRAL/NORTHEAST UTAH

CITY           SKY/WX    TMP DP  RH WIND       PRES   REMARKS
PROVO AIRPORT  CLOUDY    29  14  53 W7        29.75F WCI  22
MOAB/CANYONLAN MOSUNNY   36   3  25 CALM      29.74F
DELTA          SUNNY     32   5  32 CALM      29.74F
PRICE          SUNNY     30   5  34 SW8       29.72F WCI  22
ROOSEVELT      SUNNY     30  -6  21 SE3       29.78F
VERNAL         SUNNY     27  -8  21 SW3       29.76F

$$

UTZ013>016-019>022-027-062100-

SOUTHERN UTAH

CITY           SKY/WX    TMP DP  RH WIND       PRES   REMARKS
BRYCE CANYON   SUNNY     37  14  38 SW17      29.73F WCI  27
CEDAR CITY     SUNNY     46  14  27 S21G29    29.74F
MILFORD        SUNNY     43  12  28 S21G29    29.71F
ST GEORGE      PTCLDY    50  21  32 S3        29.83F
HANKSVILLE     SUNNY     34   3  27 SE3       29.79F
BLANDING       MOSUNNY   40  15  36 S5        29.83F

$$

REGIONAL REPORTS     COLORADO/ARIZONA

CITY           SKY/WX    TMP DP  RH WIND       PRES   REMARKS
CRAIG, CO      CLOUDY    24   4  42 E12       29.75F WCI  13
GRAND JUNCTION CLOUDY    32   6  33 CALM      29.75F
RIFLE, CO      CLOUDY    27   8  44 CALM      29.75F
MONTROSE, CO   CLOUDY    37  12  35 MISG      29.74F
CORTEZ, CO     CLOUDY    43  20  39 SW13      29.77F
COLORADO CITY    N/A     52  19  28 W9G18     29.83F
PAGE, AZ       SUNNY     49  17  28 CALM      29.76F
GRAND CANYON   SUNNY     43  20  39 SW20G26   29.85F
KINGMAN, AZ    SUNNY     58   9  14 SW23      29.85F
FLAGSTAFF, AZ  SUNNY     40  20  44 SW21G32   29.86F WCI  30

$$

REGIONAL REPORTS    NEVADA/IDAHO/WYOMING

CITY           SKY/WX    TMP DP  RH WIND       PRES   REMARKS
LAS VEGAS, NV  MOSUNNY   58  17  20 CALM      29.81F
ELY, NY        SUNNY     40   1  19 W22G32    29.71F WCI  30
ELKO, NV       MOSUNNY   33  13  43 W17       29.80F WCI  22
POCATELLO, ID  LGT SNOW  20   9  62 CALM      29.82F
BURLEY, ID     CLOUDY    23  16  74 NE6       29.80S WCI  16
FORT BRIDGER,  LGT SNOW   6  -2  70 NE3       29.74F
EVANSTON, WY   CLOUDY    13   0  56 E9        29.68F WCI   1
ROCK SPRINGS,  CLOUDY    17  -4  39 E5        29.73F WCI  10

$$




USA.gov is the U.S. government's official web portal to all federal, state and local government web resources and services.